DECAYED

STARLINK-1303, 45396 (Decayed)

Orbit data source: Space-Track

STARLINK-1303, 45396 was a payload satellite owned by SpaceX/Seattle (US) in LEO that was launched on Wed, 18 Mar 2020 UTC via an FALCON 9 launch vehicle from the Air Force Eastern Test Range (AFETR). Payload-class satellites include a variety of spacecraft equipped with specific instruments for various scientific and technological missions. These include communications satellites like Starlink; space stations such as the ISS; scientific satellites like the Hubble; Earth observation satellites from companies like Planet Labs, Umbra, and HawkEye 360; GPS; miniature CubeSats for education and research; and military/defense satellites.

Not visible in the next 10 days
Identifier
45396, 2020-019AN
Orbit
Decayed
Last TLE update
3 months ago
Origin
Manufacturer
SpaceX/Seattle
Mission
Decayed Commercial Communications
Bus & Motor
STARLINK, Unknown motor
Mass
260 kg wet, ~248 kg dry
Launch date (UTC)
2020-03-18 (5 years ago)
Launch vehicle
FALCON 9
Launch site
Air Force Eastern Test Range (AFETR)
Object type
Payload
Rocket body
Debris
Shape & HBR
Box + 1 Pan, 8.86 m
Radar Cross Section
13.562 m², Large (>1 m²)

Expand to show TLE details & history

TLE from 3 months ago
0 STARLINK-1303
1 45396U 20019AN  25095.25039984  .01245543  10434-2  11203-2 0  9997
2 45396  53.0352 165.3926 0009896 341.7437 124.8777 16.12199949279555
Epoch: 2025-04-05T06:00Z
TLE epoch observation values (Epoch: 2025-04-05T06:00:34.546Z)
Latitude
50.08306°
Longitude
-1.98358°
Altitude
250.355 km
Speed
7.761 km/s
True Right ascension
18h 47m 49s
True Declination
49° 54' 03"
Sunlit
Object was in daylight at epoch
Visualization orbit readout
Visualization observer readout
Orbital elements
Apogee altitude
247.652 km
Perigee altitude
234.551 km
Semi-major axis
6,619.238 km
Eccentricity
0.00099
Inclination
53.0352°
RAAN
165.3926°
Arg. of periapsis
341.7437°
True anomaly
Unknown
Mean anomaly
124.8777°
Eccentric anomaly
Unknown
Mean motion
4.03024 °/min
Orbital period
89.32 mins
BSTAR
0.0011203
Loading maneuver chart data...
Loading SW <> Apogee altitude chart data...
Loading historical data...
Loading historical data...
Loading historical data...
Loading historical data...
Loading historical data...
Loading historical data...
Loading historical data...

STARLINK-1303 Visibility

Observer location: undefined°, undefined°

This satellite is decayed
Span
Click to sort rows by Start time (UTC) header in descending order
Start Az.
Max El. time (UTC)
Max El. Az.
Max El.
End time (UTC)
End Az.
|